Highgate, VT

6:01 AM EST on November 22, 2019 (GMT -0500)
Franklin County State

Weather History for KFSO - September, 2019

Change the Weather History Date:

Wednesday, September 25, 2019

  Actual Average (WUND) Record (WUND)
Temperature  
Mean Temperature 63 °F -  
Max Temperature 71 °F - - (-1)
Min Temperature 55 °F - - (-1)
Degree Days  
Heating Degree Days 2    
Growing Degree Days 13 (Base 50)    
Moisture  
Dew Point 54 °F    
Average Humidity 78    
Maximum Humidity 96    
Minimum Humidity 50    
Precipitation  
Precipitation 0.00 in - - ()
Sea Level Pressure  
Sea Level Pressure 29.82 in    
Wind  
Wind Speed 1 mph (South)    
Max Wind Speed 9 mph    
Max Gust Speed -    
Visibility 10 miles    
Events      
Averages and records for this station are not official NWS values.
T = Trace of Precipitation, MM = Missing Value Source: NWS Daily Summary

Daily Weather History Graph

Daily Weather History Graph

Search for Another Location

Airport or City:

Astronomy

Sep. 25, 2019 Rise Set
Actual Time 6:42 AM EDT 6:44 PM EDT
Civil Twilight 6:13 AM EDT 7:13 PM EDT
Nautical Twilight 5:39 AM EDT 7:48 PM EDT
Astronomical Twilight 5:04 AM EDT 8:22 PM EDT
Moon 2:19 AM EDT (9/25) 5:26 PM EDT (9/25)
Length of Visible Light 13h 00m
Length of Day
12h 01m
Waning Crescent, 14% of the Moon is Illuminated
Sep 25
Waning Crescent
Sep 28
New
Oct 5
First Quarter
Oct 13
Full
Oct 21
Last Quarter

Hourly Weather History & Observations

Time (EDT) Temp. Dew Point Humidity Pressure Visibility Wind Dir Wind Speed Gust Speed Precip Events Conditions
12:15 AM 57.7 °F 54.0 °F 87% 29.84 in 10.0 mi Calm Calm - N/A   Overcast
12:36 AM 57.6 °F 54.0 °F 88% 29.83 in 10.0 mi Calm Calm - N/A   Overcast
12:55 AM 57.4 °F 54.0 °F 88% 29.82 in 10.0 mi Calm Calm - N/A   Overcast
1:16 AM 57.2 °F 54.3 °F 90% 29.83 in 10.0 mi Calm Calm - N/A   Overcast
1:35 AM 57.2 °F 54.5 °F 91% 29.83 in 10.0 mi Calm Calm - N/A   Overcast
1:56 AM 57.2 °F 54.5 °F 91% 29.83 in 10.0 mi Calm Calm - N/A   Overcast
2:15 AM 57.2 °F 54.5 °F 91% 29.83 in 10.0 mi Calm Calm - N/A   Overcast
2:35 AM 57.4 °F 54.5 °F 90% 29.83 in 10.0 mi Calm Calm - N/A   Overcast
2:56 AM 57.4 °F 54.7 °F 91% 29.83 in 10.0 mi Calm Calm - N/A   Overcast
3:15 AM 57.2 °F 54.7 °F 91% 29.82 in 10.0 mi Calm Calm - N/A   Overcast
3:35 AM 57.2 °F 54.7 °F 91% 29.82 in 10.0 mi Calm Calm - N/A   Overcast
3:56 AM 57.2 °F 55.0 °F 92% 29.83 in 10.0 mi NW 3.5 mph - N/A   Overcast
4:16 AM 57.2 °F 55.4 °F 94% 29.84 in 10.0 mi Calm Calm - N/A   Overcast
4:35 AM 57.2 °F 55.4 °F 94% 29.85 in 10.0 mi Calm Calm - N/A   Overcast
4:55 AM 57.2 °F 55.4 °F 94% 29.86 in 10.0 mi Calm Calm - N/A   Overcast
5:16 AM 57.2 °F 55.6 °F 94% 29.86 in 10.0 mi North 3.5 mph - N/A   Overcast
5:35 AM 56.5 °F 55.0 °F 95% 29.86 in 10.0 mi Calm Calm - N/A   Overcast
5:55 AM 56.3 °F 54.9 °F 95% 29.86 in 10.0 mi Calm Calm - N/A   Overcast
6:15 AM 56.3 °F 54.9 °F 95% 29.86 in 10.0 mi Calm Calm - N/A   Overcast
6:36 AM 56.3 °F 54.9 °F 95% 29.86 in 10.0 mi Calm Calm - N/A   Overcast
6:56 AM 55.9 °F 54.7 °F 96% 29.87 in 10.0 mi Calm Calm - N/A   Overcast
7:15 AM 56.3 °F 54.9 °F 95% 29.87 in 10.0 mi Calm Calm - N/A   Overcast
7:35 AM 56.3 °F 55.0 °F 96% 29.88 in 10.0 mi Calm Calm - N/A   Overcast
7:56 AM 56.7 °F 55.4 °F 96% 29.88 in 10.0 mi Calm Calm - N/A   Overcast
8:15 AM 56.8 °F 55.6 °F 96% 29.89 in 10.0 mi Calm Calm - N/A   Overcast
8:36 AM 57.2 °F 55.9 °F 96% 29.89 in 10.0 mi Calm Calm - N/A   Overcast
8:55 AM 57.6 °F 56.3 °F 96% 29.89 in 10.0 mi Calm Calm - N/A   Overcast
9:16 AM 58.1 °F 55.9 °F 93% 29.89 in 10.0 mi Calm Calm - N/A   Overcast
9:36 AM 58.8 °F 55.2 °F 88% 29.89 in 10.0 mi Calm Calm - N/A   Overcast
9:55 AM 59.0 °F 54.9 °F 86% 29.88 in 10.0 mi Calm Calm - N/A   Overcast
10:16 AM 59.9 °F 55.2 °F 84% 29.89 in 10.0 mi NW 3.5 mph - N/A   Overcast
10:56 AM 61.5 °F 55.9 °F 82% 29.89 in 10.0 mi NW 3.5 mph - N/A   Overcast
11:16 AM 61.9 °F 54.3 °F 76% 29.88 in 10.0 mi West 3.5 mph - N/A   Overcast
11:36 AM 63.0 °F 53.6 °F 71% 29.89 in 10.0 mi Calm Calm - N/A   Overcast
11:55 AM 63.5 °F 53.1 °F 69% 29.88 in 10.0 mi Calm Calm - N/A   Overcast
12:16 PM 64.2 °F 52.2 °F 65% 29.87 in 10.0 mi Calm Calm - N/A   Mostly Cloudy
12:35 PM 65.5 °F 53.1 °F 64% 29.86 in 10.0 mi SSE 3.5 mph - N/A   Mostly Cloudy
12:55 PM 65.7 °F 51.8 °F 61% 29.85 in 10.0 mi Calm Calm - N/A   Overcast
1:15 PM 66.6 °F 52.3 °F 60% 29.84 in 10.0 mi Calm Calm - N/A   Mostly Cloudy
1:36 PM 66.7 °F 51.3 °F 57% 29.83 in 10.0 mi Calm Calm - N/A   Mostly Cloudy
1:55 PM 67.6 °F 51.1 °F 55% 29.82 in 10.0 mi Calm Calm - N/A   Mostly Cloudy
2:15 PM 68.7 °F 50.5 °F 52% 29.82 in 10.0 mi SE 4.6 mph - N/A   Scattered Clouds
2:35 PM 69.4 °F 50.5 °F 51% 29.82 in 10.0 mi SW 3.5 mph - N/A   Scattered Clouds
2:56 PM 68.9 °F 51.4 °F 54% 29.80 in 10.0 mi South 5.8 mph - N/A   Scattered Clouds
3:16 PM 70.0 °F 50.5 °F 50% 29.79 in 10.0 mi SE 3.5 mph - N/A   Clear
3:35 PM 69.6 °F 51.6 °F 53% 29.78 in 10.0 mi South 4.6 mph - N/A   Clear
3:55 PM 70.0 °F 50.5 °F 50% 29.78 in 10.0 mi WSW 3.5 mph - N/A   Clear
4:16 PM 70.7 °F 51.6 °F 51% 29.78 in 10.0 mi West 3.5 mph - N/A   Clear
4:36 PM 71.1 °F 52.0 °F 51% 29.78 in 7.0 mi Calm Calm - N/A   Clear
4:55 PM 68.0 °F 54.0 °F 61% 29.76 in 10.0 mi Calm Calm - N/A   Clear
5:16 PM 69.8 °F 53.8 °F 57% 29.77 in 10.0 mi Calm Calm - N/A   Clear
5:36 PM 69.3 °F 55.4 °F 61% 29.77 in 10.0 mi Calm Calm - N/A   Clear
5:55 PM 68.7 °F 55.4 °F 62% 29.77 in 10.0 mi Calm Calm - N/A   Clear
6:16 PM 64.8 °F 55.9 °F 73% 29.77 in 10.0 mi Calm Calm - N/A   Clear
6:35 PM 62.1 °F 57.6 °F 85% 29.77 in 10.0 mi SSE 3.5 mph - N/A   Clear
6:55 PM 62.1 °F 56.8 °F 83% 29.77 in 10.0 mi SSE 3.5 mph - N/A   Clear
7:16 PM 61.7 °F 56.5 °F 83% 29.77 in 7.0 mi SSE 5.8 mph - N/A   Clear
7:35 PM 61.0 °F 55.8 °F 83% 29.76 in 10.0 mi SSE 5.8 mph - N/A   Clear
7:55 PM 60.3 °F 55.0 °F 83% 29.76 in 10.0 mi Calm Calm - N/A   Clear
8:15 PM 59.2 °F 55.4 °F 87% 29.76 in 10.0 mi SSE 4.6 mph - N/A   Clear
8:35 PM 59.0 °F 54.9 °F 86% 29.76 in 10.0 mi SE 5.8 mph - N/A   Clear
8:55 PM 60.3 °F 54.7 °F 82% 29.76 in 10.0 mi South 4.6 mph - N/A   Clear
9:15 PM 63.5 °F 53.6 °F 70% 29.75 in 10.0 mi South 9.2 mph - N/A   Clear
9:36 PM 64.8 °F 53.6 °F 67% 29.74 in 10.0 mi South 9.2 mph - N/A   Clear
9:55 PM 65.3 °F 53.6 °F 66% 29.74 in 10.0 mi South 6.9 mph - N/A   Clear
10:15 PM 65.3 °F 53.6 °F 66% 29.75 in 10.0 mi South 8.1 mph - N/A   Clear
10:35 PM 64.6 °F 53.8 °F 68% 29.75 in 10.0 mi South 8.1 mph - N/A   Clear
10:55 PM 64.9 °F 53.6 °F 67% 29.75 in 10.0 mi South 8.1 mph - N/A   Scattered Clouds
11:16 PM 65.3 °F 53.8 °F 66% 29.75 in 10.0 mi South 6.9 mph - N/A   Clear
11:35 PM 65.8 °F 54.0 °F 65% 29.74 in 10.0 mi South 9.2 mph - N/A   Clear
11:56 PM 66.2 °F 54.5 °F 66% 29.74 in 10.0 mi South 8.1 mph - N/A   Scattered Clouds